Time,TemperatureF,DewpointF,PressureIn,WindDirection,WindDirectionDegrees,WindSpeedMPH,WindSpeedGustMPH,Humidity,HourlyPrecipIn,Conditions,Clouds,dailyrainin,SoftwareType,DateUTC
2013-05-20 00:01:00,77.7,72.8,29.83,South,180,1.1,0.0,85,0.00,CLR,,0.00,WeatherDisplay:10.37,2013-05-20 05:01:00,
2013-05-20 00:06:00,77.7,72.8,29.83,South,180,1.1,0.0,85,0.00,CLR,,0.00,WeatherDisplay:10.37,2013-05-20 05:06:00,
2013-05-20 00:11:00,77.7,72.8,29.83,SW,225,2.3,0.0,85,0.00,CLR,,0.00,WeatherDisplay:10.37,2013-05-20 05:11:00,
2013-05-20 00:16:00,77.7,72.8,29.83,SE,135,1.6,0.0,85,0.00,CLR,,0.00,WeatherDisplay:10.37,2013-05-20 05:16:00,
2013-05-20 00:21:00,78.1,73.2,29.83,SE,135,2.3,2.3,85,0.00,CLR,,0.00,WeatherDisplay:10.37,2013-05-20 05:21:00,
2013-05-20 00:26:00,78.1,73.2,29.82,SE,135,5.4,5.4,85,0.00,CLR,,0.00,WeatherDisplay:10.37,2013-05-20 05:26:00,
2013-05-20 00:31:00,78.1,73.2,29.83,South,180,1.1,1.1,85,0.00,CLR,,0.00,WeatherDisplay:10.37,2013-05-20 05:31:00,
2013-05-20 00:36:00,78.1,73.2,29.82,SE,135,5.8,0.0,85,0.00,CLR,,0.00,WeatherDisplay:10.37,2013-05-20 05:36:00,
2013-05-20 00:41:00,78.1,73.2,29.82,SE,135,2.3,2.3,85,0.00,CLR,,0.00,WeatherDisplay:10.37,2013-05-20 05:41:00,
2013-05-20 00:46:00,78.1,73.2,29.82,East,90,1.1,0.0,85,0.00,CLR,,0.00,WeatherDisplay:10.37,2013-05-20 05:46:00,
2013-05-20 00:51:00,78.1,73.2,29.82,SE,135,3.5,3.5,85,0.00,CLR,,0.00,WeatherDisplay:10.37,2013-05-20 05:51:00,
2013-05-20 00:56:00,78.1,73.2,29.81,North,0,3.5,3.5,85,0.00,CLR,,0.00,WeatherDisplay:10.37,2013-05-20 05:56:00,
2013-05-20 01:01:00,78.1,73.2,29.82,SE,135,1.1,0.0,85,0.00,CLR,,0.00,WeatherDisplay:10.37,2013-05-20 06:01:00,
2013-05-20 01:06:00,78.1,73.2,29.82,SE,135,1.1,0.0,85,0.00,CLR,,0.00,WeatherDisplay:10.37,2013-05-20 06:06:00,
2013-05-20 01:11:00,77.7,72.8,29.82,South,180,3.5,3.5,85,0.00,CLR,,0.00,WeatherDisplay:10.37,2013-05-20 06:11:00,
2013-05-20 01:16:00,77.7,72.8,29.81,SE,135,2.3,0.0,85,0.00,CLR,,0.00,WeatherDisplay:10.37,2013-05-20 06:16:00,
2013-05-20 01:21:00,77.7,72.8,29.81,South,180,2.3,0.0,85,0.00,CLR,,0.00,WeatherDisplay:10.37,2013-05-20 06:21:00,
2013-05-20 01:26:00,77.7,72.8,29.82,SE,135,3.5,3.5,85,0.00,CLR,,0.00,WeatherDisplay:10.37,2013-05-20 06:26:00,
2013-05-20 01:31:00,77.7,72.8,29.81,SE,135,1.1,0.0,85,0.00,CLR,,0.00,WeatherDisplay:10.37,2013-05-20 06:31:00,
2013-05-20 01:36:00,77.7,72.8,29.81,SE,135,1.1,1.1,85,0.00,CLR,,0.00,WeatherDisplay:10.37,2013-05-20 06:36:00,
2013-05-20 01:41:00,77.7,72.8,29.81,NW,315,1.1,0.0,85,0.00,CLR,,0.00,WeatherDisplay:10.37,2013-05-20 06:41:00,
2013-05-20 01:46:00,77.7,73.2,29.81,ENE,68,5.8,5.8,86,0.00,CLR,,0.00,WeatherDisplay:10.37,2013-05-20 06:46:00,
2013-05-20 01:51:00,77.7,73.2,29.81,North,0,3.5,3.5,86,0.00,CLR,,0.00,WeatherDisplay:10.37,2013-05-20 06:51:00,
2013-05-20 01:56:00,77.7,73.2,29.81,SE,135,2.3,0.0,86,0.00,CLR,,0.00,WeatherDisplay:10.37,2013-05-20 06:56:00,
2013-05-20 02:01:00,77.7,73.2,29.80,SE,135,2.3,2.3,86,0.00,CLR,,0.00,WeatherDisplay:10.37,2013-05-20 07:01:00,
2013-05-20 02:06:00,77.7,73.2,29.81,SE,135,2.3,2.3,86,0.00,CLR,,0.00,WeatherDisplay:10.37,2013-05-20 07:06:00,
2013-05-20 02:11:00,77.7,73.2,29.80,East,90,3.5,3.5,86,0.00,CLR,,0.00,WeatherDisplay:10.37,2013-05-20 07:11:00,
2013-05-20 02:16:00,77.7,73.2,29.81,South,180,2.3,0.0,86,0.00,CLR,,0.00,WeatherDisplay:10.37,2013-05-20 07:16:00,
2013-05-20 02:21:00,77.7,73.5,29.81,SE,135,3.5,3.5,87,0.00,CLR,,0.00,WeatherDisplay:10.37,2013-05-20 07:21:00,
2013-05-20 02:26:00,77.5,73.4,29.81,East,90,3.5,3.5,87,0.00,CLR,,0.00,WeatherDisplay:10.37,2013-05-20 07:26:00,
2013-05-20 02:31:00,77.4,73.2,29.81,SE,135,2.3,0.0,87,0.00,CLR,,0.00,WeatherDisplay:10.37,2013-05-20 07:31:00,
2013-05-20 02:36:00,77.5,73.4,29.81,West,270,1.1,0.0,87,0.00,CLR,,0.00,WeatherDisplay:10.37,2013-05-20 07:36:00,
2013-05-20 02:41:00,77.5,73.4,29.80,SE,135,2.3,2.3,87,0.00,CLR,,0.00,WeatherDisplay:10.37,2013-05-20 07:41:00,
2013-05-20 02:46:00,77.5,73.4,29.81,NE,45,2.3,0.0,87,0.00,CLR,,0.00,WeatherDisplay:10.37,2013-05-20 07:46:00,
2013-05-20 02:51:00,77.5,73.4,29.80,SE,135,1.1,0.0,87,0.00,CLR,,0.00,WeatherDisplay:10.37,2013-05-20 07:51:00,
2013-05-20 02:56:00,77.5,73.4,29.80,SE,135,3.5,0.0,87,0.00,CLR,,0.00,WeatherDisplay:10.37,2013-05-20 07:56:00,
2013-05-20 03:01:00,77.5,73.4,29.81,SE,135,4.6,4.6,87,0.00,CLR,,0.00,WeatherDisplay:10.37,2013-05-20 08:01:00,
2013-05-20 03:06:00,77.5,73.4,29.80,SE,135,4.6,4.6,87,0.00,CLR,,0.00,WeatherDisplay:10.37,2013-05-20 08:06:00,
2013-05-20 03:11:00,77.7,73.5,29.80,SE,135,7.6,7.6,87,0.00,CLR,,0.00,WeatherDisplay:10.37,2013-05-20 08:11:00,
2013-05-20 03:16:00,77.7,73.2,29.80,NE,45,1.1,0.0,86,0.00,CLR,,0.00,WeatherDisplay:10.37,2013-05-20 08:16:00,
2013-05-20 03:21:00,77.7,73.2,29.80,SW,225,1.1,0.0,86,0.00,CLR,,0.00,WeatherDisplay:10.37,2013-05-20 08:21:00,
2013-05-20 03:26:00,77.7,73.2,29.80,SE,135,4.6,4.6,86,0.00,CLR,,0.00,WeatherDisplay:10.37,2013-05-20 08:26:00,
2013-05-20 03:31:00,77.7,73.2,29.80,West,270,1.1,0.0,86,0.00,CLR,,0.00,WeatherDisplay:10.37,2013-05-20 08:31:00,
2013-05-20 03:36:00,77.7,73.2,29.80,SE,135,3.5,3.5,86,0.00,CLR,,0.00,WeatherDisplay:10.37,2013-05-20 08:36:00,
2013-05-20 03:41:00,77.7,73.2,29.80,NW,315,1.1,0.0,86,0.00,CLR,,0.00,WeatherDisplay:10.37,2013-05-20 08:41:00,
2013-05-20 03:46:00,77.5,73.0,29.80,SE,135,1.1,0.0,86,0.00,CLR,,0.00,WeatherDisplay:10.37,2013-05-20 08:46:00,
2013-05-20 03:51:00,77.5,73.0,29.80,SE,135,1.1,1.1,86,0.00,CLR,,0.00,WeatherDisplay:10.37,2013-05-20 08:51:00,
2013-05-20 03:56:00,77.4,72.8,29.80,North,0,2.3,2.3,86,0.00,CLR,,0.00,WeatherDisplay:10.37,2013-05-20 08:56:00,
2013-05-20 04:01:00,77.4,72.8,29.81,NNE,22,5.8,5.8,86,0.00,CLR,,0.00,WeatherDisplay:10.37,2013-05-20 09:01:00,
2013-05-20 04:06:00,77.4,72.8,29.81,NNE,22,5.8,5.8,86,0.00,CLR,,0.00,WeatherDisplay:10.37,2013-05-20 09:06:00,
2013-05-20 04:11:00,77.4,72.8,29.81,South,180,2.3,2.3,86,0.00,CLR,,0.00,WeatherDisplay:10.37,2013-05-20 09:11:00,
2013-05-20 04:16:00,77.5,73.0,29.81,East,90,1.6,0.0,86,0.00,CLR,,0.00,WeatherDisplay:10.37,2013-05-20 09:16:00,
2013-05-20 04:21:00,77.5,72.7,29.81,SE,135,3.5,3.5,85,0.00,CLR,,0.00,WeatherDisplay:10.37,2013-05-20 09:21:00,
2013-05-20 04:26:00,77.5,72.7,29.81,South,180,2.3,2.3,85,0.00,CLR,,0.00,WeatherDisplay:10.37,2013-05-20 09:26:00,
2013-05-20 04:31:00,77.5,72.7,29.81,SE,135,3.5,0.0,85,0.00,CLR,,0.00,WeatherDisplay:10.37,2013-05-20 09:31:00,
2013-05-20 04:36:00,77.5,72.7,29.81,SE,135,1.1,0.0,85,0.00,CLR,,0.00,WeatherDisplay:10.37,2013-05-20 09:36:00,
2013-05-20 04:41:00,77.5,73.0,29.81,SE,135,2.3,0.0,86,0.00,CLR,,0.00,WeatherDisplay:10.37,2013-05-20 09:41:00,
2013-05-20 04:46:00,77.4,72.8,29.81,South,180,1.1,0.0,86,0.00,CLR,,0.00,WeatherDisplay:10.37,2013-05-20 09:46:00,
2013-05-20 04:51:00,77.4,72.8,29.81,East,90,2.3,2.3,86,0.00,CLR,,0.00,WeatherDisplay:10.37,2013-05-20 09:51:00,
2013-05-20 04:56:00,77.4,72.8,29.81,SE,135,3.5,3.5,86,0.00,CLR,,0.00,WeatherDisplay:10.37,2013-05-20 09:56:00,
2013-05-20 05:01:00,77.4,72.8,29.82,SE,135,1.1,0.0,86,0.00,CLR,,0.00,WeatherDisplay:10.37,2013-05-20 10:01:00,
2013-05-20 05:06:00,77.4,72.8,29.82,SE,135,1.1,0.0,86,0.00,CLR,,0.00,WeatherDisplay:10.37,2013-05-20 10:06:00,
2013-05-20 05:11:00,77.4,72.8,29.81,South,180,1.1,0.0,86,0.00,CLR,,0.00,WeatherDisplay:10.37,2013-05-20 10:11:00,
2013-05-20 05:16:00,77.4,72.8,29.81,South,180,2.3,0.0,86,0.00,CLR,,0.00,WeatherDisplay:10.37,2013-05-20 10:16:00,
2013-05-20 05:21:00,77.4,72.8,29.81,SE,135,1.1,0.0,86,0.00,CLR,,0.00,WeatherDisplay:10.37,2013-05-20 10:21:00,
2013-05-20 05:26:00,77.2,72.7,29.82,SE,135,1.1,0.0,86,0.00,CLR,,0.00,WeatherDisplay:10.37,2013-05-20 10:26:00,
2013-05-20 05:31:00,77.4,72.8,29.82,East,90,1.1,0.0,86,0.00,CLR,,0.00,WeatherDisplay:10.37,2013-05-20 10:31:00,
2013-05-20 05:36:00,77.2,72.7,29.82,SE,135,1.1,0.0,86,0.00,CLR,,0.00,WeatherDisplay:10.37,2013-05-20 10:36:00,
2013-05-20 05:41:00,77.2,72.7,29.83,South,180,1.1,0.0,86,0.00,CLR,,0.00,WeatherDisplay:10.37,2013-05-20 10:41:00,
2013-05-20 05:46:00,77.2,73.0,29.83,NE,45,1.1,0.0,87,0.00,CLR,,0.00,WeatherDisplay:10.37,2013-05-20 10:46:00,
2013-05-20 05:51:00,77.2,73.0,29.83,SE,135,3.5,0.0,87,0.00,CLR,,0.00,WeatherDisplay:10.37,2013-05-20 10:51:00,
2013-05-20 05:56:00,77.2,73.0,29.83,SE,135,1.1,0.0,87,0.00,CLR,,0.00,WeatherDisplay:10.37,2013-05-20 10:56:00,
2013-05-20 06:01:00,77.2,73.0,29.83,SSE,158,1.1,0.0,87,0.00,CLR,,0.00,WeatherDisplay:10.37,2013-05-20 11:01:00,
2013-05-20 06:06:00,77.2,73.0,29.83,SSE,158,1.1,0.0,87,0.00,CLR,,0.00,WeatherDisplay:10.37,2013-05-20 11:06:00,
2013-05-20 06:11:00,77.2,73.0,29.83,South,180,1.1,0.0,87,0.00,CLR,,0.00,WeatherDisplay:10.37,2013-05-20 11:11:00,
2013-05-20 06:16:00,77.2,73.0,29.84,SE,135,1.1,0.0,87,0.00,CLR,,0.00,WeatherDisplay:10.37,2013-05-20 11:16:00,
2013-05-20 06:21:00,77.2,73.0,29.84,North,0,1.1,0.0,87,0.00,CLR,,0.00,WeatherDisplay:10.37,2013-05-20 11:21:00,
2013-05-20 06:26:00,77.2,73.0,29.84,SW,225,1.1,0.0,87,0.00,CLR,,0.00,WeatherDisplay:10.37,2013-05-20 11:26:00,
2013-05-20 06:31:00,77.2,73.0,29.84,SE,135,1.1,0.0,87,0.00,CLR,,0.00,WeatherDisplay:10.37,2013-05-20 11:31:00,
2013-05-20 06:36:00,77.2,73.0,29.84,SE,135,1.1,0.0,87,0.00,CLR,,0.00,WeatherDisplay:10.37,2013-05-20 11:36:00,
2013-05-20 06:41:00,77.2,73.0,29.84,SE,135,0.0,0.0,87,0.00,CLR,,0.00,WeatherDisplay:10.37,2013-05-20 11:41:00,
2013-05-20 06:46:00,77.2,73.3,29.84,SE,135,2.3,0.0,88,0.00,CLR,,0.00,WeatherDisplay:10.37,2013-05-20 11:46:00,
2013-05-20 06:51:00,77.2,73.3,29.84,North,0,3.5,3.5,88,0.00,CLR,,0.00,WeatherDisplay:10.37,2013-05-20 11:51:00,
2013-05-20 06:56:00,77.4,73.2,29.85,SE,135,2.3,0.0,87,0.00,CLR,,0.00,WeatherDisplay:10.37,2013-05-20 11:56:00,
2013-05-20 07:01:00,77.4,73.5,29.85,SE,135,2.3,2.3,88,0.00,CLR,,0.00,WeatherDisplay:10.37,2013-05-20 12:01:00,
2013-05-20 07:06:00,77.4,73.5,29.85,SE,135,2.3,2.3,88,0.00,CLR,,0.00,WeatherDisplay:10.37,2013-05-20 12:06:00,
2013-05-20 07:11:00,77.5,73.7,29.84,North,0,1.1,0.0,88,0.00,CLR,,0.00,WeatherDisplay:10.37,2013-05-20 12:11:00,
2013-05-20 07:16:00,77.5,73.7,29.85,SE,135,2.3,2.3,88,0.00,CLR,,0.00,WeatherDisplay:10.37,2013-05-20 12:16:00,
2013-05-20 07:21:00,77.5,73.4,29.84,NE,45,1.1,0.0,87,0.00,CLR,,0.00,WeatherDisplay:10.37,2013-05-20 12:21:00,
2013-05-20 07:26:00,77.7,73.5,29.85,North,0,3.5,0.0,87,0.00,CLR,,0.00,WeatherDisplay:10.37,2013-05-20 12:26:00,
2013-05-20 07:31:00,77.7,73.5,29.85,SE,135,1.1,0.0,87,0.00,CLR,,0.00,WeatherDisplay:10.37,2013-05-20 12:31:00,
2013-05-20 07:36:00,78.1,73.9,29.85,South,180,3.5,3.5,87,0.00,CLR,,0.00,WeatherDisplay:10.37,2013-05-20 12:36:00,
2013-05-20 07:41:00,78.3,73.7,29.85,East,90,3.5,3.5,86,0.00,CLR,,0.00,WeatherDisplay:10.37,2013-05-20 12:41:00,
2013-05-20 07:46:00,78.3,73.7,29.85,SE,135,1.1,0.0,86,0.00,CLR,,0.00,WeatherDisplay:10.37,2013-05-20 12:46:00,
2013-05-20 07:51:00,78.4,73.9,29.85,SE,135,1.1,0.0,86,0.00,CLR,,0.00,WeatherDisplay:10.37,2013-05-20 12:51:00,
2013-05-20 07:56:00,78.4,73.9,29.86,SE,135,2.3,2.3,86,0.00,CLR,,0.00,WeatherDisplay:10.37,2013-05-20 12:56:00,
2013-05-20 08:01:00,78.6,74.1,29.86,West,270,4.6,4.6,86,0.00,CLR,,0.00,WeatherDisplay:10.37,2013-05-20 13:01:00,
2013-05-20 08:06:00,78.6,73.7,29.86,SE,135,4.6,0.0,85,0.00,CLR,,0.00,WeatherDisplay:10.37,2013-05-20 13:06:00,
2013-05-20 08:11:00,78.6,73.7,29.86,South,180,3.5,0.0,85,0.00,CLR,,0.00,WeatherDisplay:10.37,2013-05-20 13:11:00,
2013-05-20 08:16:00,78.6,73.7,29.86,SE,135,2.3,0.0,85,0.00,CLR,,0.00,WeatherDisplay:10.37,2013-05-20 13:16:00,
2013-05-20 08:21:00,79.0,74.4,29.86,South,180,1.1,0.0,86,0.00,CLR,,0.00,WeatherDisplay:10.37,2013-05-20 13:21:00,
2013-05-20 08:27:00,79.2,74.3,29.86,East,90,2.3,0.0,85,0.00,CLR,,0.00,WeatherDisplay:10.37,2013-05-20 13:27:00,
2013-05-20 08:32:00,79.5,74.6,29.86,South,180,1.1,0.0,85,0.00,CLR,,0.00,WeatherDisplay:10.37,2013-05-20 13:32:00,
2013-05-20 08:37:00,79.9,74.3,29.86,SE,135,1.1,0.0,83,0.00,CLR,,0.00,WeatherDisplay:10.37,2013-05-20 13:37:00,
2013-05-20 08:42:00,79.9,74.3,29.86,SW,225,2.3,0.0,83,0.00,CLR,,0.00,WeatherDisplay:10.37,2013-05-20 13:42:00,
2013-05-20 08:47:00,80.1,74.4,29.86,SE,135,1.1,0.0,83,0.00,CLR,,0.00,WeatherDisplay:10.37,2013-05-20 13:47:00,
2013-05-20 08:52:00,80.4,74.4,29.86,SE,135,2.3,0.0,82,0.00,CLR,,0.00,WeatherDisplay:10.37,2013-05-20 13:52:00,
2013-05-20 08:57:00,80.8,74.8,29.86,NE,45,3.5,3.5,82,0.00,CLR,,0.00,WeatherDisplay:10.37,2013-05-20 13:57:00,
2013-05-20 09:02:00,81.0,74.6,29.86,West,270,2.3,2.3,81,0.00,CLR,,0.00,WeatherDisplay:10.37,2013-05-20 14:02:00,
2013-05-20 09:07:00,81.7,75.3,29.86,SE,135,3.5,0.0,81,0.00,CLR,,0.00,WeatherDisplay:10.37,2013-05-20 14:07:00,
2013-05-20 09:12:00,81.9,74.3,29.86,SE,135,8.1,8.1,78,0.00,CLR,,0.00,WeatherDisplay:10.37,2013-05-20 14:12:00,
2013-05-20 09:17:00,81.7,73.8,29.86,North,0,5.8,5.8,77,0.00,CLR,,0.00,WeatherDisplay:10.37,2013-05-20 14:17:00,
2013-05-20 09:22:00,81.7,74.9,29.86,North,0,1.6,0.0,80,0.00,CLR,,0.00,WeatherDisplay:10.37,2013-05-20 14:22:00,
2013-05-20 09:27:00,82.0,74.5,29.86,ENE,68,4.6,4.6,78,0.00,CLR,,0.00,WeatherDisplay:10.37,2013-05-20 14:27:00,
2013-05-20 09:32:00,82.4,74.8,29.86,SE,135,4.6,4.6,78,0.00,CLR,,0.00,WeatherDisplay:10.37,2013-05-20 14:32:00,
2013-05-20 09:37:00,82.9,74.6,29.86,SE,135,4.6,4.6,76,0.00,CLR,,0.00,WeatherDisplay:10.37,2013-05-20 14:37:00,
2013-05-20 09:42:00,83.7,74.9,29.86,SW,225,2.3,2.3,75,0.00,CLR,,0.00,WeatherDisplay:10.37,2013-05-20 14:42:00,
2013-05-20 09:47:00,84.9,74.9,29.86,SE,135,4.6,0.0,72,0.00,CLR,,0.00,WeatherDisplay:10.37,2013-05-20 14:47:00,
2013-05-20 09:52:00,85.8,74.0,29.86,SE,135,5.8,5.8,68,0.00,CLR,,0.00,WeatherDisplay:10.37,2013-05-20 14:52:00,
2013-05-20 09:57:00,86.2,74.8,29.86,SW,225,3.5,3.5,69,0.00,CLR,,0.00,WeatherDisplay:10.37,2013-05-20 14:57:00,
2013-05-20 10:02:00,86.2,73.0,29.86,SE,135,6.9,6.9,65,0.00,CLR,,0.00,WeatherDisplay:10.37,2013-05-20 15:02:00,
2013-05-20 10:07:00,85.6,73.4,29.86,NE,45,3.5,3.5,67,0.00,CLR,,0.00,WeatherDisplay:10.37,2013-05-20 15:07:00,
2013-05-20 10:12:00,84.9,73.2,29.87,NE,45,4.6,4.6,68,0.00,CLR,,0.00,WeatherDisplay:10.37,2013-05-20 15:12:00,
2013-05-20 10:17:00,84.0,71.9,29.86,East,90,6.9,6.9,67,0.00,CLR,,0.00,WeatherDisplay:10.37,2013-05-20 15:17:00,
2013-05-20 10:22:00,83.7,72.8,29.86,West,270,6.9,6.9,70,0.00,CLR,,0.00,WeatherDisplay:10.37,2013-05-20 15:22:00,
2013-05-20 10:27:00,83.7,72.8,29.86,West,270,3.5,0.0,70,0.00,CLR,,0.00,WeatherDisplay:10.37,2013-05-20 15:27:00,
2013-05-20 10:32:00,83.5,73.1,29.86,West,270,3.5,3.5,71,0.00,CLR,,0.00,WeatherDisplay:10.37,2013-05-20 15:32:00,
2013-05-20 10:37:00,83.5,73.1,29.85,West,270,3.5,3.5,71,0.00,CLR,,0.00,WeatherDisplay:10.37,2013-05-20 15:37:00,
2013-05-20 10:42:00,85.5,74.6,29.86,SE,135,5.8,5.8,70,0.00,CLR,,0.00,WeatherDisplay:10.37,2013-05-20 15:42:00,
2013-05-20 10:47:00,86.5,73.8,29.86,SE,135,5.8,5.8,66,0.00,CLR,,0.00,WeatherDisplay:10.37,2013-05-20 15:47:00,
2013-05-20 10:52:00,87.6,75.7,29.85,SE,135,3.5,3.5,68,0.00,CLR,,0.00,WeatherDisplay:10.37,2013-05-20 15:52:00,
2013-05-20 10:57:00,88.7,74.0,29.85,South,180,5.8,5.8,62,0.00,CLR,,0.00,WeatherDisplay:10.37,2013-05-20 15:57:00,
2013-05-20 11:02:00,88.5,74.3,29.85,SE,135,3.5,3.5,63,0.00,CLR,,0.00,WeatherDisplay:10.37,2013-05-20 16:02:00,
2013-05-20 11:07:00,88.5,74.3,29.85,SE,135,3.5,3.5,63,0.00,CLR,,0.00,WeatherDisplay:10.37,2013-05-20 16:07:00,
2013-05-20 11:12:00,88.9,74.7,29.85,East,90,2.3,2.3,63,0.00,CLR,,0.00,WeatherDisplay:10.37,2013-05-20 16:12:00,
2013-05-20 11:17:00,88.2,73.0,29.85,West,270,5.8,5.8,61,0.00,CLR,,0.00,WeatherDisplay:10.37,2013-05-20 16:17:00,
2013-05-20 11:22:00,88.0,73.8,29.85,SW,225,3.5,3.5,63,0.00,CLR,,0.00,WeatherDisplay:10.37,2013-05-20 16:22:00,
2013-05-20 11:27:00,89.4,75.6,29.85,NE,45,5.8,5.8,64,0.00,CLR,,0.00,WeatherDisplay:10.37,2013-05-20 16:27:00,
2013-05-20 11:32:00,90.3,74.5,29.85,NE,45,6.9,6.9,60,0.00,CLR,,0.00,WeatherDisplay:10.37,2013-05-20 16:32:00,
2013-05-20 11:37:00,90.5,75.2,29.85,North,0,2.3,0.0,61,0.00,CLR,,0.00,WeatherDisplay:10.37,2013-05-20 16:37:00,
2013-05-20 11:42:00,91.2,75.9,29.84,SE,135,2.3,2.3,61,0.00,CLR,,0.00,WeatherDisplay:10.37,2013-05-20 16:42:00,
2013-05-20 11:47:00,91.6,76.2,29.85,NE,45,3.5,0.0,61,0.00,CLR,,0.00,WeatherDisplay:10.37,2013-05-20 16:47:00,
2013-05-20 11:52:00,92.1,75.7,29.85,South,180,3.1,0.0,59,0.00,CLR,,0.00,WeatherDisplay:10.37,2013-05-20 16:52:00,
2013-05-20 11:57:00,92.3,74.9,29.85,South,180,5.8,0.0,57,0.00,CLR,,0.00,WeatherDisplay:10.37,2013-05-20 16:57:00,
2013-05-20 12:02:00,92.1,75.2,29.84,East,90,3.5,3.5,58,0.00,CLR,,0.00,WeatherDisplay:10.37,2013-05-20 17:02:00,
2013-05-20 12:07:00,92.1,75.2,29.84,East,90,3.5,3.5,58,0.00,CLR,,0.00,WeatherDisplay:10.37,2013-05-20 17:07:00,
2013-05-20 12:12:00,91.0,74.7,29.84,North,0,3.5,3.5,59,0.00,CLR,,0.00,WeatherDisplay:10.37,2013-05-20 17:12:00,
2013-05-20 12:17:00,91.4,75.6,29.84,SW,225,3.5,0.0,60,0.00,CLR,,0.00,WeatherDisplay:10.37,2013-05-20 17:17:00,
2013-05-20 12:22:00,92.3,75.9,29.84,SE,135,1.1,0.0,59,0.00,CLR,,0.00,WeatherDisplay:10.37,2013-05-20 17:22:00,
2013-05-20 12:27:00,93.0,74.5,29.83,SE,135,5.8,5.8,55,0.00,CLR,,0.00,WeatherDisplay:10.37,2013-05-20 17:27:00,
2013-05-20 12:32:00,93.6,74.4,29.84,West,270,5.8,5.8,54,0.00,CLR,,0.00,WeatherDisplay:10.37,2013-05-20 17:32:00,
2013-05-20 12:37:00,92.5,73.4,29.83,North,0,8.1,0.0,54,0.00,CLR,,0.00,WeatherDisplay:10.37,2013-05-20 17:37:00,
2013-05-20 12:42:00,92.5,75.6,29.83,SW,225,1.1,0.0,58,0.00,CLR,,0.00,WeatherDisplay:10.37,2013-05-20 17:42:00,
2013-05-20 12:47:00,92.7,76.2,29.83,North,0,2.3,0.0,59,0.00,CLR,,0.00,WeatherDisplay:10.37,2013-05-20 17:47:00,
2013-05-20 12:52:00,93.7,74.0,29.83,South,180,6.9,6.9,53,0.00,CLR,,0.00,WeatherDisplay:10.37,2013-05-20 17:52:00,
2013-05-20 12:57:00,93.7,75.7,29.83,NE,45,4.6,0.0,56,0.00,CLR,,0.00,WeatherDisplay:10.37,2013-05-20 17:57:00,
2013-05-20 13:02:00,93.2,74.6,29.83,SE,135,2.3,2.3,55,0.00,CLR,,0.00,WeatherDisplay:10.37,2013-05-20 18:02:00,
2013-05-20 13:07:00,93.2,74.6,29.82,SE,135,2.3,2.3,55,0.00,CLR,,0.00,WeatherDisplay:10.37,2013-05-20 18:07:00,
2013-05-20 13:12:00,93.9,75.8,29.82,East,90,3.5,0.0,56,0.00,CLR,,0.00,WeatherDisplay:10.37,2013-05-20 18:12:00,
2013-05-20 13:17:00,93.9,73.6,29.83,SE,135,2.3,2.3,52,0.00,CLR,,0.00,WeatherDisplay:10.37,2013-05-20 18:17:00,
2013-05-20 13:22:00,94.5,75.8,29.82,NE,45,3.5,3.5,55,0.00,CLR,,0.00,WeatherDisplay:10.37,2013-05-20 18:22:00,
2013-05-20 13:27:00,95.5,76.2,29.82,SW,225,5.8,5.8,54,0.00,CLR,,0.00,WeatherDisplay:10.37,2013-05-20 18:27:00,
2013-05-20 13:32:00,95.7,74.7,29.82,SE,135,3.5,0.0,51,0.00,CLR,,0.00,WeatherDisplay:10.37,2013-05-20 18:32:00,
2013-05-20 13:37:00,95.5,75.1,29.81,SE,135,5.8,5.8,52,0.00,CLR,,0.00,WeatherDisplay:10.37,2013-05-20 18:37:00,
2013-05-20 13:42:00,95.7,72.9,29.81,NE,45,5.8,5.8,48,0.00,CLR,,0.00,WeatherDisplay:10.37,2013-05-20 18:42:00,
2013-05-20 13:47:00,96.1,73.8,29.81,SW,225,5.8,0.0,49,0.00,CLR,,0.00,WeatherDisplay:10.37,2013-05-20 18:47:00,
2013-05-20 13:52:00,95.4,73.2,29.81,SE,135,2.3,0.0,49,0.00,CLR,,0.00,WeatherDisplay:10.37,2013-05-20 18:52:00,
2013-05-20 13:57:00,93.7,74.6,29.81,East,90,5.8,5.8,54,0.00,CLR,,0.00,WeatherDisplay:10.37,2013-05-20 18:57:00,
2013-05-20 14:02:00,94.5,74.1,29.81,West,270,8.1,8.1,52,0.00,CLR,,0.00,WeatherDisplay:10.37,2013-05-20 19:02:00,
2013-05-20 14:07:00,96.1,74.4,29.80,SE,135,8.1,8.1,50,0.00,CLR,,0.00,WeatherDisplay:10.37,2013-05-20 19:07:00,
2013-05-20 14:12:00,96.8,72.0,29.81,SE,135,3.5,3.8,45,0.00,CLR,,0.00,WeatherDisplay:10.37,2013-05-20 19:12:00,
2013-05-20 14:17:00,96.8,72.6,29.81,SE,135,5.8,5.8,46,0.00,CLR,,0.00,WeatherDisplay:10.37,2013-05-20 19:17:00,
2013-05-20 14:22:00,97.3,72.4,29.81,SE,135,5.8,5.8,45,0.00,CLR,,0.00,WeatherDisplay:10.37,2013-05-20 19:22:00,
2013-05-20 14:27:00,97.3,73.7,29.80,SE,135,5.8,0.0,47,0.00,CLR,,0.00,WeatherDisplay:10.37,2013-05-20 19:27:00,
2013-05-20 14:32:00,97.0,72.1,29.80,East,90,2.3,2.3,45,0.00,CLR,,0.00,WeatherDisplay:10.37,2013-05-20 19:32:00,
2013-05-20 14:37:00,95.0,71.6,29.80,SSE,158,5.8,5.8,47,0.00,CLR,,0.00,WeatherDisplay:10.37,2013-05-20 19:37:00,
2013-05-20 14:42:00,94.5,71.7,29.80,North,0,9.2,9.2,48,0.00,CLR,,0.00,WeatherDisplay:10.37,2013-05-20 19:42:00,
2013-05-20 14:47:00,95.0,73.4,29.80,South,180,5.8,5.8,50,0.00,CLR,,0.00,WeatherDisplay:10.37,2013-05-20 19:47:00,
2013-05-20 14:52:00,95.4,72.6,29.80,SE,135,3.5,3.5,48,0.00,CLR,,0.00,WeatherDisplay:10.37,2013-05-20 19:52:00,
2013-05-20 14:57:00,96.3,74.6,29.80,East,90,2.3,2.3,50,0.00,CLR,,0.00,WeatherDisplay:10.37,2013-05-20 19:57:00,
2013-05-20 15:02:00,96.3,73.4,29.80,SE,135,2.3,2.3,48,0.00,CLR,,0.00,WeatherDisplay:10.37,2013-05-20 20:02:00,
2013-05-20 15:07:00,95.5,73.3,29.80,SE,135,3.1,0.0,49,0.00,CLR,,0.00,WeatherDisplay:10.37,2013-05-20 20:07:00,
2013-05-20 15:12:00,95.4,72.6,29.80,SE,135,3.5,3.5,48,0.00,CLR,,0.00,WeatherDisplay:10.37,2013-05-20 20:12:00,
2013-05-20 15:17:00,95.4,73.8,29.80,East,90,5.8,5.8,50,0.00,CLR,,0.00,WeatherDisplay:10.37,2013-05-20 20:17:00,
2013-05-20 15:22:00,94.8,72.7,29.79,SE,135,3.5,0.0,49,0.00,CLR,,0.00,WeatherDisplay:10.37,2013-05-20 20:22:00,
2013-05-20 15:27:00,93.7,72.3,29.79,South,180,3.5,3.5,50,0.00,CLR,,0.00,WeatherDisplay:10.37,2013-05-20 20:27:00,
2013-05-20 15:32:00,92.5,72.3,29.79,SE,135,5.8,5.8,52,0.00,CLR,,0.00,WeatherDisplay:10.37,2013-05-20 20:32:00,
2013-05-20 15:37:00,91.9,71.8,29.79,SE,135,5.8,0.0,52,0.00,CLR,,0.00,WeatherDisplay:10.37,2013-05-20 20:37:00,
2013-05-20 15:42:00,91.8,72.2,29.78,SW,225,6.9,6.9,53,0.00,CLR,,0.00,WeatherDisplay:10.37,2013-05-20 20:42:00,
2013-05-20 15:47:00,92.7,73.6,29.78,ENE,68,1.1,1.1,54,0.00,CLR,,0.00,WeatherDisplay:10.37,2013-05-20 20:47:00,
2013-05-20 15:52:00,93.9,74.2,29.78,East,90,3.5,0.0,53,0.00,CLR,,0.00,WeatherDisplay:10.37,2013-05-20 20:52:00,
2013-05-20 15:57:00,94.5,72.3,29.78,SE,135,2.3,2.3,49,0.00,CLR,,0.00,WeatherDisplay:10.37,2013-05-20 20:57:00,
2013-05-20 16:02:00,94.3,73.4,29.78,North,0,2.3,0.0,51,0.00,CLR,,0.00,WeatherDisplay:10.37,2013-05-20 21:02:00,
2013-05-20 16:07:00,94.3,73.4,29.78,North,0,2.3,0.0,51,0.00,CLR,,0.00,WeatherDisplay:10.37,2013-05-20 21:07:00,
2013-05-20 16:12:00,93.6,73.3,29.78,ESE,112,3.5,3.5,52,0.00,CLR,,0.00,WeatherDisplay:10.37,2013-05-20 21:12:00,
2013-05-20 16:17:00,93.4,73.1,29.77,SW,225,4.6,4.6,52,0.00,CLR,,0.00,WeatherDisplay:10.37,2013-05-20 21:17:00,
2013-05-20 16:22:00,93.2,72.4,29.77,SE,135,3.5,3.5,51,0.00,CLR,,0.00,WeatherDisplay:10.37,2013-05-20 21:22:00,
2013-05-20 16:27:00,92.3,72.1,29.77,East,90,6.9,6.9,52,0.00,CLR,,0.00,WeatherDisplay:10.37,2013-05-20 21:27:00,
2013-05-20 16:32:00,92.3,73.2,29.77,NE,45,3.8,0.0,54,0.00,CLR,,0.00,WeatherDisplay:10.37,2013-05-20 21:32:00,
2013-05-20 16:37:00,92.1,72.5,29.77,SE,135,6.9,6.9,53,0.00,CLR,,0.00,WeatherDisplay:10.37,2013-05-20 21:37:00,
2013-05-20 16:42:00,91.4,71.9,29.77,SE,135,8.1,0.0,53,0.00,CLR,,0.00,WeatherDisplay:10.37,2013-05-20 21:42:00,
2013-05-20 16:47:00,91.2,72.8,29.77,South,180,2.3,2.3,55,0.00,CLR,,0.00,WeatherDisplay:10.37,2013-05-20 21:47:00,
2013-05-20 16:52:00,91.8,74.4,29.76,NNE,22,1.1,0.0,57,0.00,CLR,,0.00,WeatherDisplay:10.37,2013-05-20 21:52:00,
2013-05-20 16:57:00,92.7,74.7,29.77,NNE,22,3.5,3.5,56,0.00,CLR,,0.00,WeatherDisplay:10.37,2013-05-20 21:57:00,
2013-05-20 17:02:00,91.9,73.5,29.76,NE,45,3.5,3.5,55,0.00,CLR,,0.00,WeatherDisplay:10.37,2013-05-20 22:02:00,
2013-05-20 17:07:00,91.6,72.6,29.76,West,270,5.8,0.0,54,0.00,CLR,,0.00,WeatherDisplay:10.37,2013-05-20 22:07:00,
2013-05-20 17:12:00,91.2,72.2,29.76,SE,135,3.5,3.5,54,0.00,CLR,,0.00,WeatherDisplay:10.37,2013-05-20 22:12:00,
2013-05-20 17:17:00,91.2,72.2,29.75,South,180,4.6,4.6,54,0.00,CLR,,0.00,WeatherDisplay:10.37,2013-05-20 22:17:00,
2013-05-20 17:22:00,91.0,72.1,29.75,SE,135,5.8,0.0,54,0.00,CLR,,0.00,WeatherDisplay:10.37,2013-05-20 22:22:00,
2013-05-20 17:27:00,90.9,72.5,29.75,South,180,2.3,2.3,55,0.00,CLR,,0.00,WeatherDisplay:10.37,2013-05-20 22:27:00,
2013-05-20 17:32:00,90.3,73.0,29.75,SE,135,3.5,3.5,57,0.00,CLR,,0.00,WeatherDisplay:10.37,2013-05-20 22:32:00,
2013-05-20 17:37:00,90.1,72.3,29.74,NE,45,3.5,3.5,56,0.00,CLR,,0.00,WeatherDisplay:10.37,2013-05-20 22:37:00,
2013-05-20 17:42:00,90.1,72.3,29.74,SE,135,3.5,0.0,56,0.00,CLR,,0.00,WeatherDisplay:10.37,2013-05-20 22:42:00,
2013-05-20 17:47:00,89.8,73.0,29.74,SW,225,3.5,3.5,58,0.00,CLR,,0.00,WeatherDisplay:10.37,2013-05-20 22:47:00,
2013-05-20 17:52:00,89.8,73.0,29.74,North,0,3.5,0.0,58,0.00,CLR,,0.00,WeatherDisplay:10.37,2013-05-20 22:52:00,
2013-05-20 17:57:00,89.6,72.3,29.73,SE,135,4.6,4.6,57,0.00,CLR,,0.00,WeatherDisplay:10.37,2013-05-20 22:57:00,
2013-05-20 18:02:00,89.6,72.3,29.73,East,90,1.1,0.0,57,0.00,CLR,,0.00,WeatherDisplay:10.37,2013-05-20 23:02:00,
2013-05-20 18:07:00,89.8,72.5,29.73,SE,135,2.3,2.3,57,0.00,CLR,,0.00,WeatherDisplay:10.37,2013-05-20 23:07:00,
2013-05-20 18:12:00,90.0,73.2,29.73,North,0,3.5,3.5,58,0.00,CLR,,0.00,WeatherDisplay:10.37,2013-05-20 23:12:00,
2013-05-20 18:17:00,89.8,72.5,29.73,SE,135,3.5,3.5,57,0.00,CLR,,0.00,WeatherDisplay:10.37,2013-05-20 23:17:00,
2013-05-20 18:22:00,89.4,71.7,29.73,SE,135,3.5,0.0,56,0.00,CLR,,0.00,WeatherDisplay:10.37,2013-05-20 23:22:00,
2013-05-20 18:27:00,89.1,71.3,29.73,SE,135,2.3,2.3,56,0.00,CLR,,0.00,WeatherDisplay:10.37,2013-05-20 23:27:00,
2013-05-20 18:32:00,88.7,72.0,29.73,SE,135,2.3,2.3,58,0.00,CLR,,0.00,WeatherDisplay:10.37,2013-05-20 23:32:00,
2013-05-20 18:37:00,88.2,71.0,29.73,South,180,4.6,4.6,57,0.00,CLR,,0.00,WeatherDisplay:10.37,2013-05-20 23:37:00,
2013-05-20 18:42:00,87.6,71.0,29.73,SE,135,3.5,3.5,58,0.00,CLR,,0.00,WeatherDisplay:10.37,2013-05-20 23:42:00,
2013-05-20 18:47:00,87.1,71.5,29.73,South,180,2.3,2.3,60,0.00,CLR,,0.00,WeatherDisplay:10.37,2013-05-20 23:47:00,
2013-05-20 18:52:00,86.9,71.8,29.73,South,180,2.3,0.0,61,0.00,CLR,,0.00,WeatherDisplay:10.37,2013-05-20 23:52:00,
2013-05-20 18:57:00,86.7,72.1,29.72,SE,135,2.3,2.3,62,0.00,CLR,,0.00,WeatherDisplay:10.37,2013-05-20 23:57:00,
2013-05-20 19:02:00,86.4,72.7,29.73,East,90,2.3,0.0,64,0.00,CLR,,0.00,WeatherDisplay:10.37,2013-05-21 00:02:00,
2013-05-20 19:07:00,86.0,71.9,29.73,SE,135,4.6,4.6,63,0.00,CLR,,0.00,WeatherDisplay:10.37,2013-05-21 00:07:00,
2013-05-20 19:12:00,85.6,71.1,29.73,SE,135,9.2,9.2,62,0.00,CLR,,0.00,WeatherDisplay:10.37,2013-05-21 00:12:00,
2013-05-20 19:17:00,85.5,71.4,29.73,SE,135,1.1,0.0,63,0.00,CLR,,0.00,WeatherDisplay:10.37,2013-05-21 00:17:00,
2013-05-20 19:22:00,85.1,71.5,29.73,SE,135,3.5,3.5,64,0.00,CLR,,0.00,WeatherDisplay:10.37,2013-05-21 00:22:00,
2013-05-20 19:27:00,84.9,71.4,29.73,South,180,1.1,1.1,64,0.00,CLR,,0.00,WeatherDisplay:10.37,2013-05-21 00:27:00,
2013-05-20 19:32:00,84.7,71.7,29.73,SE,135,1.1,0.0,65,0.00,CLR,,0.00,WeatherDisplay:10.37,2013-05-21 00:32:00,
2013-05-20 19:37:00,84.4,71.8,29.74,South,180,4.6,4.6,66,0.00,CLR,,0.00,WeatherDisplay:10.37,2013-05-21 00:37:00,
2013-05-20 19:42:00,83.8,71.7,29.73,SE,135,5.8,5.8,67,0.00,CLR,,0.00,WeatherDisplay:10.37,2013-05-21 00:42:00,
2013-05-20 19:47:00,83.7,72.0,29.73,SE,135,4.6,4.6,68,0.00,CLR,,0.00,WeatherDisplay:10.37,2013-05-21 00:47:00,
2013-05-20 19:52:00,83.7,72.0,29.73,SE,135,1.1,0.0,68,0.00,CLR,,0.00,WeatherDisplay:10.37,2013-05-21 00:52:00,
2013-05-20 19:57:00,83.1,71.5,29.73,East,90,1.1,0.0,68,0.00,CLR,,0.00,WeatherDisplay:10.37,2013-05-21 00:57:00,
2013-05-20 20:02:00,82.8,71.5,29.74,SE,135,1.1,0.0,69,0.00,CLR,,0.00,WeatherDisplay:10.37,2013-05-21 01:02:00,
2013-05-20 20:07:00,82.6,71.8,29.74,SE,135,1.1,0.0,70,0.00,CLR,,0.00,WeatherDisplay:10.37,2013-05-21 01:07:00,
2013-05-20 20:12:00,82.2,71.9,29.74,South,180,3.5,3.5,71,0.00,CLR,,0.00,WeatherDisplay:10.37,2013-05-21 01:12:00,
2013-05-20 20:17:00,81.9,71.9,29.75,South,180,1.1,0.0,72,0.00,CLR,,0.00,WeatherDisplay:10.37,2013-05-21 01:17:00,
2013-05-20 20:22:00,81.5,72.0,29.75,SE,135,1.1,0.0,73,0.00,CLR,,0.00,WeatherDisplay:10.37,2013-05-21 01:22:00,
2013-05-20 20:27:00,81.5,72.0,29.75,NW,315,2.3,0.0,73,0.00,CLR,,0.00,WeatherDisplay:10.37,2013-05-21 01:27:00,
2013-05-20 20:32:00,81.5,72.4,29.75,South,180,2.3,2.3,74,0.00,CLR,,0.00,WeatherDisplay:10.37,2013-05-21 01:32:00,
2013-05-20 20:37:00,81.5,72.4,29.75,SE,135,3.5,0.0,74,0.00,CLR,,0.00,WeatherDisplay:10.37,2013-05-21 01:37:00,
2013-05-20 20:42:00,81.5,72.4,29.75,NW,315,2.3,0.0,74,0.00,CLR,,0.00,WeatherDisplay:10.37,2013-05-21 01:42:00,
2013-05-20 20:47:00,81.3,72.6,29.75,SE,135,2.3,2.3,75,0.00,CLR,,0.00,WeatherDisplay:10.37,2013-05-21 01:47:00,
2013-05-20 20:52:00,81.3,72.6,29.76,South,180,3.5,0.0,75,0.00,CLR,,0.00,WeatherDisplay:10.37,2013-05-21 01:52:00,
2013-05-20 20:57:00,81.1,72.5,29.76,South,180,3.5,0.0,75,0.00,CLR,,0.00,WeatherDisplay:10.37,2013-05-21 01:57:00,
2013-05-20 21:02:00,81.0,72.3,29.76,SE,135,1.1,0.0,75,0.00,CLR,,0.00,WeatherDisplay:10.37,2013-05-21 02:02:00,
2013-05-20 21:07:00,81.0,72.3,29.76,SE,135,1.1,0.0,75,0.00,CLR,,0.00,WeatherDisplay:10.37,2013-05-21 02:07:00,
2013-05-20 21:12:00,80.8,72.5,29.76,SE,135,2.3,2.3,76,0.00,CLR,,0.00,WeatherDisplay:10.37,2013-05-21 02:12:00,
2013-05-20 21:17:00,80.6,72.3,29.77,SE,135,5.8,5.8,76,0.00,CLR,,0.00,WeatherDisplay:10.37,2013-05-21 02:17:00,
2013-05-20 21:22:00,80.2,72.0,29.77,SE,135,3.5,3.5,76,0.00,CLR,,0.00,WeatherDisplay:10.37,2013-05-21 02:22:00,
2013-05-20 21:27:00,80.2,72.0,29.76,NE,45,2.3,2.3,76,0.00,CLR,,0.00,WeatherDisplay:10.37,2013-05-21 02:27:00,
2013-05-20 21:32:00,80.1,71.8,29.77,SE,135,5.8,0.0,76,0.00,CLR,,0.00,WeatherDisplay:10.37,2013-05-21 02:32:00,
2013-05-20 21:37:00,79.9,71.6,29.77,SE,135,1.1,0.0,76,0.00,CLR,,0.00,WeatherDisplay:10.37,2013-05-21 02:37:00,
2013-05-20 21:42:00,79.7,71.8,29.78,South,180,2.3,0.0,77,0.00,CLR,,0.00,WeatherDisplay:10.37,2013-05-21 02:42:00,
2013-05-20 21:47:00,79.5,71.7,29.78,SE,135,3.5,0.0,77,0.00,CLR,,0.00,WeatherDisplay:10.37,2013-05-21 02:47:00,
2013-05-20 21:52:00,79.5,71.7,29.78,SE,135,1.1,0.0,77,0.00,CLR,,0.00,WeatherDisplay:10.37,2013-05-21 02:52:00,
2013-05-20 21:57:00,79.3,71.5,29.77,SE,135,3.5,0.0,77,0.00,CLR,,0.00,WeatherDisplay:10.37,2013-05-21 02:57:00,
2013-05-20 22:02:00,79.5,71.7,29.78,SE,135,1.1,0.0,77,0.00,CLR,,0.00,WeatherDisplay:10.37,2013-05-21 03:02:00,
2013-05-20 22:07:00,79.5,71.7,29.78,SE,135,1.1,0.0,77,0.00,CLR,,0.00,WeatherDisplay:10.37,2013-05-21 03:07:00,
2013-05-20 22:12:00,79.2,71.3,29.79,NW,315,4.6,4.6,77,0.00,CLR,,0.00,WeatherDisplay:10.37,2013-05-21 03:12:00,
2013-05-20 22:17:00,79.2,71.3,29.79,South,180,1.1,1.1,77,0.00,CLR,,0.00,WeatherDisplay:10.37,2013-05-21 03:17:00,
2013-05-20 22:22:00,79.0,71.5,29.79,SW,225,4.6,0.0,78,0.00,CLR,,0.00,WeatherDisplay:10.37,2013-05-21 03:22:00,
2013-05-20 22:27:00,78.8,71.7,29.80,SW,225,4.6,4.6,79,0.00,CLR,,0.00,WeatherDisplay:10.37,2013-05-21 03:27:00,
2013-05-20 22:32:00,79.0,71.5,29.80,East,90,4.6,4.6,78,0.00,CLR,,0.00,WeatherDisplay:10.37,2013-05-21 03:32:00,
2013-05-20 22:37:00,79.0,71.5,29.80,SE,135,3.5,0.0,78,0.00,CLR,,0.00,WeatherDisplay:10.37,2013-05-21 03:37:00,
2013-05-20 22:42:00,78.8,71.7,29.80,South,180,8.1,8.1,79,0.00,CLR,,0.00,WeatherDisplay:10.37,2013-05-21 03:42:00,
2013-05-20 22:47:00,79.0,71.9,29.80,South,180,1.1,1.1,79,0.00,CLR,,0.00,WeatherDisplay:10.37,2013-05-21 03:47:00,
2013-05-20 22:52:00,78.8,71.7,29.80,South,180,2.3,2.3,79,0.00,CLR,,0.00,WeatherDisplay:10.37,2013-05-21 03:52:00,
2013-05-20 22:57:00,78.6,71.6,29.81,NE,45,3.5,3.5,79,0.00,CLR,,0.00,WeatherDisplay:10.37,2013-05-21 03:57:00,
2013-05-20 23:01:00,78.6,71.9,29.81,North,0,3.5,3.5,80,0.00,CLR,,0.00,WeatherDisplay:10.37,2013-05-21 04:01:00,
2013-05-20 23:06:00,78.6,71.9,29.81,North,0,3.5,3.5,80,0.00,CLR,,0.00,WeatherDisplay:10.37,2013-05-21 04:06:00,
2013-05-20 23:11:00,78.4,71.8,29.81,South,180,1.1,0.0,80,0.00,CLR,,0.00,WeatherDisplay:10.37,2013-05-21 04:11:00,
2013-05-20 23:16:00,78.3,71.9,29.81,SE,135,5.8,0.0,81,0.00,CLR,,0.00,WeatherDisplay:10.37,2013-05-21 04:16:00,
2013-05-20 23:21:00,78.3,71.6,29.80,SE,135,1.1,0.0,80,0.00,CLR,,0.00,WeatherDisplay:10.37,2013-05-21 04:21:00,
2013-05-20 23:26:00,78.3,71.9,29.81,SW,225,1.1,1.1,81,0.00,CLR,,0.00,WeatherDisplay:10.37,2013-05-21 04:26:00,
2013-05-20 23:31:00,78.3,71.9,29.81,SE,135,1.1,1.1,81,0.00,CLR,,0.00,WeatherDisplay:10.37,2013-05-21 04:31:00,
2013-05-20 23:36:00,78.1,71.8,29.81,North,0,2.3,0.0,81,0.00,CLR,,0.00,WeatherDisplay:10.37,2013-05-21 04:36:00,
2013-05-20 23:41:00,78.1,71.8,29.81,South,180,3.5,0.0,81,0.00,CLR,,0.00,WeatherDisplay:10.37,2013-05-21 04:41:00,
2013-05-20 23:46:00,78.1,71.8,29.81,South,180,0.0,0.0,81,0.00,CLR,,0.00,WeatherDisplay:10.37,2013-05-21 04:46:00,
2013-05-20 23:51:00,77.7,71.8,29.81,North,0,1.1,0.0,82,0.00,CLR,,0.00,WeatherDisplay:10.37,2013-05-21 04:51:00,
2013-05-20 23:56:00,77.7,71.8,29.81,SW,225,1.1,0.0,82,0.00,CLR,,0.00,WeatherDisplay:10.37,2013-05-21 04:56:00,